Flag for Cayman Islands Weather past 2 weeks in George Town, Cayman Islands

Now
79 °F

Passing clouds.


Feels Like: 82 °F
Forecast: 79 / 82 °F
Wind: 6 mph from Southeast

Location: Owen Roberts Airportgrand Cayman

Current Time: Feb 27, 2015 at 1:11:00 AM

Latest Report: Feb 26, 2015 at 10:00 PM


Visibility: N/A

Pressure: 29.98 "Hg

Humidity: 84%

Dew point: 73 °F

Location of George TownLocation

Historic Weather in George Town — Graph

°F

George Town temperature yesterday

Maximum temperature yesterday: 86 °F (at 1:00 PM)
Minimum temperature yesterday: 79 °F (at 6:00 AM)
Average temperature yesterday: 82 °F

Past Weeks' High & Low Weather Summary

 TemperatureHumidityPressure
High86 °F (Feb 26, 1:00 PM)100% (Feb 17, 6:15 AM)30.18 "Hg (Feb 17, 6:15 AM)
Low68 °F (Feb 12, 5:58 AM)54% (Feb 12, 10:50 AM)29.89 "Hg (Feb 25, 4:00 PM)
Average77 °F76%30.03 "Hg
* Reported Feb 12 5:58 AM — Feb 26 10:00 PM, George Town, Weather by CustomWeather, © 2015

Note: Actual official high and low records may vary slightly from our data, if they occured in-between our weather recording intervals... More about our weather records

Advertising

George Town weather history for previous 24 hours

 ConditionsComfort  
Time TempWeatherWind HumidityBarometerVisibility
10:00 PM
Thu, Feb 26
79 °FPassing clouds.6 mph84%29.98 "HgN/A
9:00 PM81 °FPassing clouds.7 mph79%29.98 "HgN/A
8:00 PM81 °FPassing clouds.7 mph84%29.95 "HgN/A
7:00 PM81 °FPassing clouds.7 mph84%29.92 "HgN/A
6:00 PM82 °FPassing clouds.8 mph79%29.92 "HgN/A
5:00 PM82 °FPassing clouds.10 mph79%29.89 "HgN/A
4:00 PM84 °FPassing clouds.12 mph74%29.89 "HgN/A
3:00 PM84 °FPassing clouds.13 mph74%29.92 "HgN/A
2:00 PM86 °FPassing clouds.15 mph70%29.92 "HgN/A
1:00 PM86 °FPassing clouds.14 mph70%29.95 "HgN/A
12:00 PM84 °FPassing clouds.13 mph74%29.95 "HgN/A
11:00 AM84 °FPassing clouds.12 mph74%29.98 "HgN/A
10:00 AM82 °FPassing clouds.10 mph74%29.98 "HgN/A
9:00 AM82 °FPassing clouds.10 mph74%29.95 "HgN/A
8:00 AM81 °FPassing clouds.8 mph84%29.92 "HgN/A
7:00 AM79 °FPassing clouds.9 mph84%29.92 "HgN/A
6:00 AM79 °FPassing clouds.8 mph84%29.89 "HgN/A
Weather by CustomWeather, © 2015

See weather overviewHow to use our weather pages